Wetterdaten: aktuell Donnerstag, 07.05.2026 07:33
Datum Zeit Temp. A. Feuchte A. Luftdruck Regen Wind Richtung Richtung Taupunkt Windchill
07.05.2026 07:33 10,9 °C 78 % 1004,4 hPa 0,0 l/m² 0,0 km/h (0 Bft) N-NW 340 ° 7,2 °C 10,9 °C
07.05.2026 07:31 10,9 °C 78 % 1004,4 hPa 0,0 l/m² 0,0 km/h (0 Bft) N-NW 340 ° 7,2 °C 10,9 °C
07.05.2026 07:28 10,9 °C 79 % 1004,4 hPa 0,0 l/m² 0,1 km/h (0 Bft) N-NW 330 ° 7,4 °C 10,9 °C
07.05.2026 07:26 10,9 °C 79 % 1004,4 hPa 0,0 l/m² 5,8 km/h (2 Bft) NW±22.5° 325 ° 7,4 °C 10,9 °C
07.05.2026 07:25 10,9 °C 79 % 1004,4 hPa 0,0 l/m² 5,8 km/h (2 Bft) NW±22.5° 325 ° 7,4 °C 10,9 °C
07.05.2026 07:23 10,9 °C 80 % 1004,4 hPa 0,0 l/m² 4,0 km/h (1 Bft) N-NW 335 ° 7,6 °C 10,9 °C
07.05.2026 07:21 10,9 °C 80 % 1004,4 hPa 0,0 l/m² 5,1 km/h (1 Bft) N-NW 330 ° 7,6 °C 10,9 °C
07.05.2026 07:19 10,9 °C 80 % 1004,4 hPa 0,0 l/m² 0,0 km/h (0 Bft) NW 325 ° 7,6 °C 10,9 °C
07.05.2026 07:17 10,8 °C 80 % 1004,4 hPa 0,0 l/m² 0,0 km/h (0 Bft) NW 325 ° 7,5 °C 10,8 °C
07.05.2026 07:15 10,8 °C 80 % 1004,4 hPa 0,0 l/m² 0,4 km/h (0 Bft) NW 325 ° 7,5 °C 10,8 °C
07.05.2026 07:13 10,8 °C 81 % 1004,4 hPa 0,0 l/m² 0,1 km/h (0 Bft) NW 325 ° 7,7 °C 10,8 °C
07.05.2026 07:11 10,9 °C 82 % 1004,4 hPa 0,0 l/m² 0,1 km/h (0 Bft) NW 325 ° 7,9 °C 10,9 °C
07.05.2026 07:09 10,9 °C 82 % 1004,4 hPa 0,0 l/m² 0,1 km/h (0 Bft) NW 320 ° 7,9 °C 10,9 °C
07.05.2026 07:07 10,8 °C 83 % 1004,4 hPa 0,0 l/m² 0,3 km/h (0 Bft) NW 315 ° 8,0 °C 10,8 °C
07.05.2026 07:05 10,8 °C 83 % 1004,4 hPa 0,0 l/m² 0,9 km/h (0 Bft) NW 315 ° 8,0 °C 10,8 °C
07.05.2026 07:03 10,8 °C 84 % 1004,4 hPa 0,0 l/m² 0,9 km/h (0 Bft) NW 315 ° 8,2 °C 10,8 °C
07.05.2026 07:01 10,8 °C 84 % 1004,4 hPa 0,0 l/m² 0,3 km/h (0 Bft) NW 325 ° 8,2 °C 10,8 °C
07.05.2026 06:59 10,8 °C 85 % 1004,4 hPa 0,0 l/m² 0,7 km/h (0 Bft) NW 325 ° 8,4 °C 10,8 °C
07.05.2026 06:57 10,8 °C 85 % 1004,4 hPa 0,0 l/m² 0,0 km/h (0 Bft) NW 325 ° 8,4 °C 10,8 °C
07.05.2026 06:55 10,8 °C 85 % 1004,4 hPa 0,0 l/m² 0,0 km/h (0 Bft) NW 325 ° 8,4 °C 10,8 °C
07.05.2026 06:53 10,7 °C 85 % 1004,4 hPa 0,0 l/m² 0,0 km/h (0 Bft) NW 325 ° 8,3 °C 10,7 °C
07.05.2026 06:51 10,7 °C 86 % 1004,4 hPa 0,0 l/m² 3,1 km/h (1 Bft) NW 320 ° 8,5 °C 10,7 °C
07.05.2026 06:48 10,7 °C 86 % 1004,4 hPa 0,0 l/m² 3,1 km/h (1 Bft) NW 320 ° 8,5 °C 10,7 °C
07.05.2026 06:46 10,7 °C 86 % 1004,4 hPa 0,0 l/m² 0,0 km/h (0 Bft) NW 310 ° 8,5 °C 10,7 °C
07.05.2026 06:44 10,6 °C 86 % 1004,4 hPa 0,0 l/m² 0,0 km/h (0 Bft) NW 310 ° 8,4 °C 10,6 °C
07.05.2026 06:43 10,6 °C 86 % 1004,4 hPa 0,0 l/m² 0,2 km/h (0 Bft) NW 310 ° 8,4 °C 10,6 °C
07.05.2026 06:41 10,6 °C 87 % 1004,4 hPa 0,0 l/m² 0,2 km/h (0 Bft) NW 310 ° 8,5 °C 10,6 °C
07.05.2026 06:39 10,6 °C 87 % 1004,4 hPa 0,0 l/m² 3,8 km/h (1 Bft) NW 315 ° 8,5 °C 10,6 °C
07.05.2026 06:37 10,6 °C 87 % 1004,4 hPa 0,0 l/m² 0,0 km/h (0 Bft) NW 320 ° 8,5 °C 10,6 °C
07.05.2026 06:35 10,6 °C 87 % 1004,4 hPa 0,0 l/m² 0,0 km/h (0 Bft) NW 320 ° 8,5 °C 10,6 °C
07.05.2026 06:33 10,6 °C 87 % 1004,4 hPa 0,0 l/m² 0,0 km/h (0 Bft) NW 320 ° 8,5 °C 10,6 °C
07.05.2026 06:31 10,6 °C 87 % 1004,4 hPa 0,0 l/m² 0,0 km/h (0 Bft) NW 320 ° 8,5 °C 10,6 °C
07.05.2026 06:29 10,6 °C 87 % 1004,4 hPa 0,0 l/m² 0,0 km/h (0 Bft) NW 320 ° 8,5 °C 10,6 °C
07.05.2026 06:27 10,6 °C 87 % 1004,4 hPa 0,0 l/m² 0,0 km/h (0 Bft) NW 320 ° 8,5 °C 10,6 °C
07.05.2026 06:25 10,6 °C 87 % 1004,4 hPa 0,0 l/m² 0,0 km/h (0 Bft) NW 320 ° 8,5 °C 10,6 °C
07.05.2026 06:23 10,6 °C 87 % 1003,4 hPa 0,0 l/m² 0,0 km/h (0 Bft) NW 320 ° 8,5 °C 10,6 °C
07.05.2026 06:21 10,6 °C 87 % 1003,4 hPa 0,0 l/m² 0,0 km/h (0 Bft) NW 320 ° 8,5 °C 10,6 °C
07.05.2026 06:19 10,6 °C 87 % 1003,4 hPa 0,0 l/m² 0,0 km/h (0 Bft) NW 320 ° 8,5 °C 10,6 °C
07.05.2026 06:17 10,6 °C 87 % 1003,4 hPa 0,0 l/m² 0,0 km/h (0 Bft) NW 320 ° 8,5 °C 10,6 °C
07.05.2026 06:15 10,5 °C 87 % 1003,4 hPa 0,0 l/m² 0,0 km/h (0 Bft) NW 320 ° 8,4 °C 10,5 °C
07.05.2026 06:13 10,5 °C 87 % 1003,4 hPa 0,0 l/m² 0,0 km/h (0 Bft) NW 320 ° 8,4 °C 10,5 °C
_ Min-Zeit 04:55 00:09 00:01 - 01:11 - - 03:37 03:35
Minimum _ 10,4 °C 72 % 1001,2 hPa - 0,0 km/h (0 Bft) - - 7,1 °C 9,0 °C
_ Max-Zeit 00:01 05:41 06:25 05:03 03:35 - - 05:53 00:01
Maximum _ 12,9 °C 87 % 1004,4 hPa 0,4 l/m² 10,0 km/h
NW (2 Bft)
- - 8,5 °C 12,9 °C
Durchschnitt _ 11,3 °C 80 % 1002,9 hPa #0,4 l/m² 2,1 km/h (1 Bft) NW - 7,9 °C 11,3 °C